period_start,C,m1,H,J0,J1,J2,J3,J4,J5,JA,JB,JC,JD,JJ,JK,JN,#
2016-08-30 00:02:21,0.00,0.26,0.00,21.93,27.77,31.16,14.82,47.73,1024.37,2035.05,3408.90,3072.98,3475.00,600.45,603.16,36.00,0000 0000 0000 0000 000000
2016-08-30 00:07:22,0.01,0.26,0.00,21.96,27.78,31.18,14.76,47.69,1024.41,2035.02,3408.40,3072.85,3474.99,600.21,602.90,36.06,0000 0000 0000 0000 000000
2016-08-30 00:12:23,0.02,0.27,0.00,22.00,27.80,31.22,14.73,47.63,1024.39,2035.00,3408.02,3072.25,3474.79,599.79,602.39,36.11,0000 0000 0000 0000 000000
2016-08-30 00:17:24,0.01,0.27,0.00,21.97,27.82,31.20,14.83,47.72,1024.40,2035.00,3408.00,3072.02,3474.08,600.01,602.72,36.16,0000 0000 0000 0000 000000
2016-08-30 00:22:25,0.00,0.27,0.00,21.97,27.84,31.24,14.77,47.70,1024.43,2035.00,3407.73,3072.00,3474.00,599.90,602.62,36.21,0000 0000 0000 0000 000000
2016-08-30 00:27:26,0.01,0.27,0.00,22.01,27.85,31.27,14.82,47.70,1024.43,2035.00,3407.14,3071.92,3473.95,600.02,602.65,36.26,0000 0000 0000 0000 000000
2016-08-30 00:32:28,0.02,0.27,0.00,22.06,27.87,31.27,14.75,47.74,1024.43,2034.98,3407.00,3071.30,3473.44,599.84,602.37,36.31,0000 0000 0000 0000 000000
2016-08-30 00:37:29,0.01,0.27,0.00,22.07,27.90,31.28,14.74,47.83,1024.43,2034.96,3406.86,3071.02,3473.03,599.78,602.36,36.36,0000 0000 0000 0000 000000
2016-08-30 00:42:30,0.01,0.27,0.00,22.05,27.91,31.31,14.82,47.67,1024.43,2034.96,3406.09,3071.00,3472.98,600.09,602.63,36.41,0000 0000 0000 0000 000000
2016-08-30 00:47:32,0.00,0.27,0.00,22.10,27.93,31.33,14.80,47.73,1024.43,2034.94,3406.00,3070.98,3472.79,600.08,602.61,36.46,0000 0000 0000 0000 000000
2016-08-30 00:52:33,-0.02,0.27,0.00,22.13,27.95,31.36,14.82,47.89,1024.43,2034.67,3405.89,3070.67,3472.13,599.95,602.43,36.51,0000 0000 0000 0000 000000
2016-08-30 00:57:35,-0.01,0.27,0.00,22.17,27.97,31.41,14.80,47.80,1024.43,2034.23,3405.18,3070.07,3472.00,600.12,602.42,36.56,0000 0000 0000 0000 000000
2016-08-30 01:02:36,-0.00,0.27,0.00,22.19,28.00,31.41,14.83,47.65,1024.43,2034.07,3405.00,3070.00,3471.97,599.96,602.22,36.61,0000 0000 0000 0000 000000
2016-08-30 01:07:37,0.00,0.27,0.00,22.22,28.01,31.44,14.77,47.80,1024.43,2034.04,3404.99,3070.00,3471.63,600.04,602.24,36.66,0000 0000 0000 0000 000000
2016-08-30 01:12:39,0.00,0.27,0.00,22.25,28.03,31.46,14.78,47.73,1024.43,2034.00,3404.79,3069.91,3471.03,600.13,602.21,36.71,0000 0000 0000 0000 000000
2016-08-30 01:17:40,0.03,0.27,0.00,22.28,28.05,31.46,14.76,47.82,1024.43,2034.00,3404.10,3069.26,3470.99,600.18,602.18,36.76,0000 0000 0000 0000 000000
2016-08-30 01:22:41,0.01,0.27,0.00,22.32,28.07,31.48,14.75,47.80,1024.43,2034.00,3403.99,3069.01,3470.59,600.00,602.05,36.81,0000 0000 0000 0000 000000
2016-08-30 01:27:43,0.01,0.27,0.00,22.33,28.10,31.51,14.76,47.74,1024.43,2034.00,3403.74,3068.99,3470.05,599.70,601.72,36.86,0000 0000 0000 0000 000000
2016-08-30 01:32:44,0.02,0.27,0.00,22.33,28.12,31.56,14.74,47.89,1024.43,2033.97,3403.05,3068.67,3470.00,600.06,602.08,36.91,0000 0000 0000 0000 000000
2016-08-30 01:37:45,0.00,0.27,0.00,22.36,28.14,31.55,14.72,47.88,1024.43,2033.90,3403.00,3068.13,3469.87,599.65,601.58,36.97,0000 0000 0000 0000 000000
2016-08-30 01:42:46,-0.03,0.27,0.00,22.41,28.16,31.56,14.77,47.83,1024.42,2033.52,3402.86,3068.01,3469.19,600.11,601.98,37.02,0000 0000 0000 0000 000000
2016-08-30 01:47:48,-0.00,0.27,0.00,22.43,28.17,31.58,14.79,47.95,1024.33,2033.16,3402.22,3068.00,3469.00,600.23,601.89,37.07,0000 0000 0000 0000 000000
2016-08-30 01:52:49,0.00,0.27,0.00,22.45,28.19,31.61,14.74,47.75,1024.31,2033.09,3402.01,3067.92,3469.00,599.96,601.63,37.12,0000 0000 0000 0000 000000
2016-08-30 01:57:50,0.02,0.27,0.00,22.44,28.21,31.62,14.73,47.74,1024.41,2033.03,3401.95,3067.25,3468.65,599.87,601.56,37.17,0000 0000 0000 0000 000000
2016-08-30 02:02:51,0.02,0.27,0.00,22.48,28.22,31.66,14.80,47.77,1024.35,2033.01,3401.61,3067.03,3468.12,599.74,601.41,37.22,0000 0000 0000 0000 000000
2016-08-30 02:07:53,0.00,0.27,0.00,22.50,28.25,31.69,14.73,47.75,1024.09,2033.00,3401.03,3067.00,3468.00,599.87,601.26,37.27,0000 0000 0000 0000 000000
2016-08-30 02:12:54,0.00,0.27,0.00,22.49,28.27,31.69,14.75,47.66,1024.01,2033.00,3401.00,3066.95,3467.90,600.01,601.51,37.32,0000 0000 0000 0000 000000
2016-08-30 02:17:55,0.02,0.28,0.00,22.49,28.29,31.72,14.69,47.61,1023.99,2033.00,3400.89,3066.46,3467.23,600.00,601.39,37.37,0000 0000 0000 0000 000000
2016-08-30 02:22:57,0.02,0.28,0.00,22.54,28.30,31.73,14.77,47.67,1024.15,2032.98,3400.36,3066.08,3467.03,599.86,601.24,37.42,0000 0000 0000 0000 000000
2016-08-30 02:27:58,0.00,0.28,0.00,22.60,28.32,31.72,14.67,47.63,1023.98,2032.93,3400.01,3066.00,3467.00,599.80,600.96,37.47,0000 0000 0000 0000 000000
2016-08-30 02:32:59,-0.03,0.28,0.00,22.63,28.35,31.77,14.76,47.84,1023.96,2032.74,3400.00,3065.99,3466.86,600.09,601.13,37.52,0000 0000 0000 0000 000000
2016-08-30 02:38:00,-0.01,0.27,0.00,22.65,28.37,31.79,14.72,47.74,1023.96,2032.26,3399.70,3065.71,3466.14,600.03,601.01,37.57,0000 0000 0000 0000 000000
2016-08-30 02:43:02,0.02,0.28,0.00,22.72,28.40,31.80,14.71,47.88,1023.96,2032.06,3399.08,3065.05,3466.00,600.16,601.05,37.62,0000 0000 0000 0000 000000
2016-08-30 02:48:03,-0.00,0.28,0.00,22.79,28.42,31.86,14.75,47.74,1023.94,2032.01,3399.00,3065.00,3465.96,600.11,600.83,37.67,0000 0000 0000 0000 000000
2016-08-30 02:53:04,0.01,0.28,0.00,22.79,28.45,31.88,14.77,47.94,1023.95,2032.00,3398.97,3064.98,3465.28,600.08,600.85,37.72,0000 0000 0000 0000 000000
2016-08-30 02:58:05,0.02,0.28,0.00,22.81,28.48,31.91,14.69,47.95,1023.95,2032.00,3398.40,3064.59,3465.00,599.84,600.64,37.78,0000 0000 0000 0000 000000
2016-08-30 03:03:07,0.01,0.28,0.00,22.86,28.51,31.92,14.77,47.98,1023.95,2031.99,3398.01,3064.07,3464.97,600.12,600.74,37.83,0000 0000 0000 0000 000000
2016-08-30 03:08:08,-0.01,0.28,0.00,22.88,28.53,31.95,14.73,48.05,1023.94,2031.88,3397.98,3064.00,3464.36,600.24,600.77,37.88,0000 0000 0000 0000 000000
2016-08-30 03:13:09,-0.02,0.28,0.00,22.94,28.56,31.99,14.73,47.83,1023.95,2031.44,3397.57,3063.90,3464.00,600.05,600.47,37.93,0000 0000 0000 0000 000000
2016-08-30 03:18:11,0.00,0.28,0.00,23.01,28.60,31.99,14.69,47.80,1023.96,2031.07,3397.12,3063.35,3463.93,600.00,600.28,37.98,0000 0000 0000 0000 000000
2016-08-30 03:23:12,0.01,0.28,0.00,23.02,28.63,32.03,14.68,47.97,1023.97,2031.01,3397.00,3063.02,3463.29,600.11,600.41,38.03,0000 0000 0000 0000 000000
2016-08-30 03:28:13,0.00,0.28,0.00,23.08,28.66,32.02,14.72,47.77,1023.96,2031.01,3396.88,3062.99,3463.01,600.24,600.41,38.08,0000 0000 0000 0000 000000
2016-08-30 03:33:14,0.04,0.28,0.00,23.32,28.69,31.98,14.66,47.81,1024.00,2031.00,3396.14,3062.53,3462.68,599.93,599.68,38.13,0000 0000 0000 0000 000000
2016-08-30 03:38:15,0.00,0.28,0.00,24.00,28.74,31.77,14.57,47.49,1024.07,2030.95,3395.99,3062.01,3462.02,599.97,598.30,38.18,0000 0000 0000 0000 000000
2016-08-30 03:43:16,-0.03,0.28,0.00,24.11,28.78,31.75,14.52,47.42,1024.10,2030.51,3395.55,3061.80,3461.85,599.80,597.89,38.23,0000 0000 0000 0000 000000
2016-08-30 03:48:18,0.00,0.28,0.00,24.20,28.82,31.76,14.60,47.41,1024.13,2030.09,3395.01,3061.07,3461.09,600.05,598.13,38.28,0000 0000 0000 0000 000000
2016-08-30 03:53:19,0.00,0.28,0.00,24.26,28.86,31.80,14.64,47.33,1024.26,2030.00,3394.90,3060.99,3460.99,600.20,598.15,38.33,0000 0000 0000 0000 000000
2016-08-30 03:58:20,0.04,0.28,0.00,24.31,28.90,31.83,14.57,47.27,1024.26,2030.00,3394.22,3060.61,3460.27,600.15,597.84,38.38,0000 0000 0000 0000 000000
2016-08-30 04:03:21,0.01,0.28,0.00,24.36,28.94,31.89,14.55,47.59,1024.25,2029.96,3393.96,3060.02,3459.90,600.10,597.87,38.43,0000 0000 0000 0000 000000
2016-08-30 04:08:23,-0.00,0.28,0.00,24.37,28.97,31.92,14.53,47.36,1024.25,2029.66,3393.14,3059.78,3459.09,599.99,597.73,38.48,0000 0000 0000 0000 000000
2016-08-30 04:13:24,-0.02,0.28,0.00,24.39,29.00,31.98,14.56,47.28,1024.16,2029.18,3392.99,3059.09,3458.99,599.98,597.63,38.53,0000 0000 0000 0000 000000
2016-08-30 04:18:25,0.01,0.28,0.00,24.44,29.03,31.99,14.61,47.43,1024.14,2029.07,3392.62,3059.00,3458.60,600.10,597.88,38.58,0000 0000 0000 0000 000000
2016-08-30 04:23:26,0.01,0.28,0.00,24.44,29.05,32.02,14.59,47.41,1024.01,2029.00,3392.03,3058.91,3458.03,600.00,597.45,38.63,0000 0000 0000 0000 000000
2016-08-30 04:28:27,0.01,0.28,0.00,24.47,29.07,32.02,14.53,47.34,1023.99,2029.00,3391.99,3058.51,3457.99,599.95,597.41,38.68,0000 0000 0000 0000 000000
2016-08-30 04:33:29,0.01,0.28,0.00,24.49,29.09,32.05,14.61,47.34,1023.97,2029.00,3391.75,3058.06,3457.89,600.07,597.46,38.73,0000 0000 0000 0000 000000
2016-08-30 04:38:30,0.01,0.28,0.00,24.51,29.10,32.08,14.56,47.32,1023.97,2028.99,3391.16,3058.00,3457.26,599.87,597.23,38.79,0000 0000 0000 0000 000000
2016-08-30 04:43:31,0.00,0.28,0.00,24.52,29.12,32.12,14.59,47.42,1023.96,2028.96,3391.00,3057.99,3457.02,600.16,597.44,38.84,0000 0000 0000 0000 000000
2016-08-30 04:48:33,-0.00,0.28,0.00,24.52,29.13,32.13,14.53,47.25,1023.99,2028.92,3390.99,3057.89,3456.99,599.99,597.32,38.89,0000 0000 0000 0000 000000
2016-08-30 04:53:34,0.00,0.28,0.00,24.57,29.15,32.10,14.53,47.36,1023.96,2028.70,3390.61,3057.26,3456.79,599.65,596.91,38.94,0000 0000 0000 0000 000000
2016-08-30 04:58:35,-0.01,0.28,0.00,24.60,29.15,32.12,14.56,47.42,1023.96,2028.36,3390.10,3057.03,3456.29,599.91,596.98,38.99,0000 0000 0000 0000 000000
2016-08-30 05:03:36,-0.02,0.28,0.00,24.61,29.17,32.13,14.61,47.29,1023.96,2028.14,3390.00,3057.00,3456.03,600.11,597.23,39.04,0000 0000 0000 0000 000000
2016-08-30 05:08:37,0.00,0.28,0.00,24.63,29.17,32.14,14.52,47.21,1023.95,2028.09,3389.96,3056.99,3456.00,599.87,596.90,39.09,0000 0000 0000 0000 000000
2016-08-30 05:13:39,-0.00,0.28,0.00,24.66,29.18,32.07,14.55,47.26,1023.97,2028.11,3389.86,3056.98,3456.00,600.02,597.01,39.14,0000 0000 0000 0000 000000
2016-08-30 05:18:40,0.01,0.28,0.00,24.67,29.20,32.02,14.59,47.29,1023.96,2028.03,3389.20,3056.84,3455.97,599.99,596.92,39.19,0000 0000 0000 0000 000000
2016-08-30 05:23:41,0.01,0.28,0.00,24.72,29.20,32.01,14.58,47.35,1023.96,2028.01,3389.02,3056.45,3455.81,600.12,597.05,39.24,0000 0000 0000 0000 000000
2016-08-30 05:28:42,0.01,0.28,0.00,24.74,29.20,32.02,14.57,47.24,1023.94,2028.02,3388.99,3056.10,3455.26,600.16,596.98,39.29,0000 0000 0000 0000 000000
2016-08-30 05:33:44,0.00,0.29,0.00,24.77,29.20,31.99,14.51,47.16,1023.94,2028.01,3388.73,3056.01,3455.01,599.94,596.72,39.34,0000 0000 0000 0000 000000
2016-08-30 05:38:45,0.01,0.29,0.00,24.79,29.21,31.98,14.51,47.17,1023.94,2028.00,3388.20,3056.00,3455.00,599.79,596.55,39.39,0000 0000 0000 0000 000000
2016-08-30 05:43:46,-0.00,0.29,0.00,24.87,29.22,31.93,14.48,47.25,1023.94,2028.00,3388.08,3056.00,3454.99,599.63,596.18,39.44,0000 0000 0000 0000 000000
2016-08-30 05:48:47,0.00,0.29,0.00,24.85,29.22,31.95,14.52,47.21,1023.94,2028.00,3388.04,3056.00,3454.99,600.12,596.72,39.49,0000 0000 0000 0000 000000
2016-08-30 05:53:48,0.00,0.29,0.00,24.91,29.23,31.93,14.46,47.03,1023.94,2028.00,3388.00,3055.98,3454.97,599.98,596.47,39.54,0000 0000 0000 0000 000000
2016-08-30 05:58:50,0.00,0.29,0.00,24.88,29.25,31.93,14.41,46.98,1023.94,2028.00,3388.00,3055.95,3454.75,599.55,596.21,39.59,0000 0000 0000 0000 000000
2016-08-30 06:03:51,0.01,0.29,0.00,24.92,29.25,31.92,14.52,47.10,1023.94,2028.00,3387.98,3055.77,3454.32,600.07,596.53,39.65,0000 0000 0000 0000 000000
2016-08-30 06:08:52,0.02,0.29,0.00,25.03,29.25,31.91,14.50,47.04,1023.94,2028.00,3387.72,3055.43,3454.10,600.11,596.33,39.70,0000 0000 0000 0000 000000
2016-08-30 06:13:54,0.01,0.29,0.00,25.01,29.25,31.92,14.50,47.08,1023.94,2028.00,3387.29,3055.09,3454.01,599.78,595.96,39.75,0000 0000 0000 0000 000000
2016-08-30 06:18:55,0.00,0.29,0.00,25.04,29.26,31.91,14.42,46.96,1023.94,2028.00,3387.04,3055.03,3454.00,599.94,596.05,39.80,0000 0000 0000 0000 000000
2016-08-30 06:23:56,0.00,0.29,0.00,25.04,29.27,31.91,14.50,47.01,1023.94,2028.00,3387.00,3055.01,3454.00,600.05,596.32,39.85,0000 0000 0000 0000 000000
2016-08-30 06:28:58,0.00,0.29,0.00,25.08,29.27,31.88,14.46,47.02,1023.94,2027.99,3387.00,3055.00,3453.98,599.95,595.96,39.90,0000 0000 0000 0000 000000
2016-08-30 06:33:59,0.00,0.29,0.00,25.17,29.27,31.89,14.45,46.95,1023.94,2027.99,3386.99,3055.00,3453.95,599.91,595.80,39.95,0000 0000 0000 0000 000000
2016-08-30 06:39:01,0.01,0.29,0.00,25.14,29.27,31.88,14.52,47.08,1023.94,2027.99,3386.76,3054.95,3453.55,599.91,595.93,40.00,0000 0000 0000 0000 000000
2016-08-30 06:44:02,0.01,0.29,0.00,25.21,29.27,31.88,14.50,47.04,1023.94,2027.99,3386.50,3054.93,3453.25,600.13,596.04,40.05,0000 0000 0000 0000 000000
2016-08-30 06:49:03,0.02,0.29,0.00,25.24,29.28,31.87,14.48,47.04,1023.94,2027.98,3386.07,3054.51,3453.03,600.16,595.93,40.10,0000 0000 0000 0000 000000
2016-08-30 06:54:04,0.01,0.29,0.00,25.27,29.30,31.89,14.47,47.01,1023.94,2027.97,3386.01,3054.14,3453.00,600.10,595.85,40.15,0000 0000 0000 0000 000000
2016-08-30 06:59:05,0.00,0.29,0.00,25.25,29.30,31.88,14.46,47.08,1023.94,2027.96,3386.00,3054.03,3453.00,599.97,595.72,40.20,0000 0000 0000 0000 000000
2016-08-30 07:04:06,-0.00,0.29,0.00,25.30,29.30,31.88,14.42,47.07,1023.93,2027.97,3386.00,3054.01,3452.99,599.87,595.53,40.25,0000 0000 0000 0000 000000
2016-08-30 07:09:08,0.00,0.29,0.00,25.30,29.30,31.85,14.58,47.23,1023.94,2027.98,3385.92,3054.00,3452.92,600.41,596.13,40.30,0000 0000 0000 0000 000000
2016-08-30 07:14:09,0.00,0.29,0.00,25.39,29.32,31.86,14.45,47.11,1023.94,2027.96,3385.46,3054.00,3452.70,600.14,595.70,40.35,0000 0000 0000 0000 000000
2016-08-30 07:19:10,0.01,0.29,0.00,25.41,29.32,31.87,14.44,47.21,1023.94,2027.96,3385.04,3053.98,3452.20,599.95,595.33,40.40,0000 0000 0000 0000 000000
2016-08-30 07:24:12,0.00,0.29,0.00,25.42,29.32,31.87,14.43,47.17,1023.94,2027.96,3385.00,3053.92,3452.02,599.98,595.39,40.45,0000 0000 0000 0000 000000
2016-08-30 07:29:13,0.00,0.29,0.00,25.45,29.33,31.88,14.41,46.97,1023.94,2027.90,3385.00,3053.67,3452.00,599.98,595.29,40.50,0000 0000 0000 0000 000000
2016-08-30 07:34:14,0.00,0.29,0.00,25.47,29.34,31.87,14.49,47.08,1023.94,2027.78,3384.97,3053.16,3452.00,600.12,595.47,40.55,0000 0000 0000 0000 000000
2016-08-30 07:39:15,-0.00,0.29,0.00,25.48,29.34,31.87,14.41,47.01,1023.95,2027.61,3384.58,3053.04,3451.96,599.76,595.09,40.60,0000 0000 0000 0000 000000
2016-08-30 07:44:17,-0.02,0.29,0.00,25.50,29.34,31.87,14.43,47.00,1023.94,2027.42,3384.07,3053.01,3451.85,599.78,595.03,40.66,0000 0000 0000 0000 000000
2016-08-30 07:49:18,-0.00,0.29,0.00,25.51,29.33,31.86,14.41,46.95,1023.94,2027.27,3384.01,3053.00,3451.48,599.93,595.26,40.71,0000 0000 0000 0000 000000
2016-08-30 07:54:19,0.02,0.29,0.00,25.52,29.32,31.87,14.37,46.92,1023.94,2027.35,3384.00,3053.00,3451.07,599.75,595.03,40.76,0000 0000 0000 0000 000000
2016-08-30 07:59:20,0.02,0.29,0.00,25.52,29.32,31.87,14.39,46.90,1023.94,2027.62,3383.98,3053.00,3451.07,600.12,595.47,40.81,0000 0000 0000 0000 000000
2016-08-30 08:04:22,0.01,0.29,0.00,25.54,29.32,31.86,14.46,46.89,1023.94,2027.67,3383.95,3053.00,3451.03,599.98,595.17,40.86,0000 0000 0000 0000 000000
2016-08-30 08:09:23,0.01,0.30,0.00,25.55,29.31,31.86,14.43,46.86,1023.94,2027.89,3383.93,3052.99,3451.07,599.68,594.89,40.91,0000 0000 0000 0000 000000
2016-08-30 08:14:25,0.01,0.30,0.00,25.56,29.30,31.85,14.50,46.73,1023.94,2027.90,3383.63,3052.99,3451.03,600.42,595.60,40.96,0000 0000 0000 0000 000000
2016-08-30 08:19:26,0.01,0.30,0.00,25.56,29.30,31.85,14.33,46.76,1023.94,2027.88,3383.21,3052.98,3451.01,599.45,594.65,41.01,0000 0000 0000 0000 000000
2016-08-30 08:24:27,-0.00,0.30,0.00,25.57,29.30,31.84,14.37,46.74,1023.94,2027.88,3383.21,3052.99,3451.00,600.09,595.20,41.06,0000 0000 0000 0000 000000
2016-08-30 08:29:29,-0.00,0.30,0.00,25.58,29.29,31.82,14.40,46.78,1023.94,2027.83,3383.11,3052.98,3451.00,599.64,594.83,41.11,0000 0000 0000 0000 000000
2016-08-30 08:34:30,0.00,0.30,0.00,25.60,29.28,31.83,14.39,46.77,1023.94,2027.81,3383.06,3052.95,3451.00,600.03,595.12,41.16,0000 0000 0000 0000 000000
2016-08-30 08:39:31,0.01,0.30,0.00,25.61,29.27,31.83,14.40,46.71,1023.94,2027.88,3383.01,3052.96,3451.00,599.87,594.84,41.21,0000 0000 0000 0000 000000
2016-08-30 08:44:33,0.00,0.30,0.00,25.61,29.27,31.82,14.45,46.83,1023.93,2027.94,3383.00,3052.96,3451.00,600.08,595.22,41.26,0000 0000 0000 0000 000000
2016-08-30 08:49:34,-0.00,0.30,0.00,25.62,29.27,31.84,14.46,46.77,1023.93,2027.93,3383.00,3052.93,3451.00,599.84,594.97,41.31,0000 0000 0000 0000 000000
2016-08-30 08:54:35,-0.00,0.30,0.00,25.63,29.27,31.82,14.38,46.73,1023.92,2027.85,3383.00,3052.82,3450.98,599.89,594.88,41.36,0000 0000 0000 0000 000000
2016-08-30 08:59:36,0.01,0.30,0.00,25.63,29.27,31.82,14.40,46.72,1023.94,2027.92,3383.01,3052.89,3450.99,599.93,594.84,41.41,0000 0000 0000 0000 000000
2016-08-30 09:04:38,0.00,0.30,0.00,25.65,29.27,31.81,14.39,46.73,1023.94,2027.96,3383.00,3052.90,3450.99,599.75,594.70,41.46,0000 0000 0000 0000 000000
2016-08-30 09:09:39,0.00,0.30,0.00,25.66,29.26,31.81,14.45,46.73,1023.94,2027.95,3383.00,3052.92,3450.99,599.88,594.87,41.51,0000 0000 0000 0000 000000
2016-08-30 09:14:41,0.00,0.30,0.00,25.66,29.25,31.80,14.45,46.84,1023.94,2027.97,3382.98,3052.91,3450.99,599.80,594.94,41.56,0000 0000 0000 0000 000000
2016-08-30 09:19:42,0.00,0.30,0.00,25.67,29.25,31.81,14.41,46.67,1023.94,2027.97,3382.97,3052.88,3450.98,600.47,595.41,41.62,0000 0000 0000 0000 000000
2016-08-30 09:24:43,0.00,0.30,0.00,25.67,29.25,31.81,14.46,46.70,1023.94,2027.96,3382.97,3052.64,3450.94,600.22,595.26,41.67,0000 0000 0000 0000 000000
2016-08-30 09:29:45,0.02,0.30,0.00,25.69,29.25,31.80,14.44,46.69,1023.94,2027.96,3382.71,3052.31,3450.87,600.21,595.05,41.72,0000 0000 0000 0000 000000
2016-08-30 09:34:46,0.01,0.30,0.00,25.68,29.25,31.80,14.44,47.01,1023.94,2027.96,3382.56,3052.28,3450.74,600.08,595.11,41.77,0000 0000 0000 0000 000000
2016-08-30 09:39:47,0.01,0.30,0.00,25.69,29.25,31.80,14.40,46.98,1023.94,2027.96,3382.03,3052.05,3450.26,600.10,594.96,41.82,0000 0000 0000 0000 000000
2016-08-30 09:44:48,0.00,0.30,0.00,25.70,29.25,31.80,14.35,46.80,1023.94,2027.98,3382.01,3052.02,3450.11,600.00,594.91,41.87,0000 0000 0000 0000 000000
2016-08-30 09:49:50,-0.00,0.30,0.00,25.69,29.24,31.79,14.46,46.89,1023.94,2027.97,3382.00,3052.01,3450.05,599.78,594.70,41.92,0000 0000 0000 0000 000000
2016-08-30 09:54:51,-0.00,0.30,0.00,25.70,29.23,31.79,14.42,46.78,1023.94,2027.97,3382.00,3052.02,3450.08,600.34,595.22,41.97,0000 0000 0000 0000 000000
2016-08-30 09:59:52,0.00,0.30,0.00,25.71,29.22,31.77,14.41,46.79,1023.94,2027.99,3382.00,3052.03,3450.10,599.83,594.72,42.02,0000 0000 0000 0000 000000
2016-08-30 10:04:54,0.00,0.30,0.00,25.71,29.22,31.76,14.43,46.61,1023.94,2027.99,3381.99,3052.01,3450.03,600.00,594.87,42.07,0000 0000 0000 0000 000000
2016-08-30 10:09:55,0.00,0.30,0.00,25.71,29.22,31.78,14.39,46.77,1023.94,2027.99,3381.97,3052.00,3450.02,599.90,594.76,42.12,0000 0000 0000 0000 000000
2016-08-30 10:14:56,0.01,0.30,0.00,25.72,29.22,31.78,14.42,46.80,1023.94,2027.99,3381.53,3052.00,3450.00,599.92,594.88,42.17,0000 0000 0000 0000 000000
2016-08-30 10:19:58,0.01,0.30,0.00,25.71,29.22,31.78,14.42,46.75,1023.95,2027.99,3381.00,3051.83,3449.73,599.63,594.51,42.22,0000 0000 0000 0000 000000
2016-08-30 10:24:59,0.04,0.30,0.00,25.72,29.20,31.77,14.40,46.72,1023.95,2027.99,3380.40,3051.09,3449.05,599.83,594.80,42.27,0000 0000 0000 0000 000000
2016-08-30 10:30:00,0.00,0.30,0.00,25.72,29.20,31.76,14.46,46.73,1023.94,2027.99,3379.99,3050.99,3448.96,600.26,595.00,42.32,0000 0000 0000 0000 000000
2016-08-30 10:35:01,0.02,0.30,0.00,25.75,29.20,31.76,14.44,46.77,1023.94,2027.99,3379.54,3050.94,3448.60,599.86,594.76,42.37,0000 0000 0000 0000 000000
2016-08-30 10:40:03,0.03,0.31,0.00,25.74,29.20,31.75,14.46,46.86,1023.94,2027.99,3379.02,3050.37,3448.06,600.25,595.03,42.42,0000 0000 0000 0000 000000
2016-08-30 10:45:04,0.01,0.31,0.00,25.73,29.20,31.75,14.41,46.84,1023.96,2027.99,3378.53,3050.01,3447.96,600.26,595.11,42.47,0000 0000 0000 0000 000000
2016-08-30 10:50:06,0.03,0.31,0.00,25.73,29.20,31.75,14.47,46.72,1024.01,2027.99,3377.81,3049.74,3447.39,600.02,595.11,42.52,0000 0000 0000 0000 000000
2016-08-30 10:55:07,0.03,0.31,0.00,25.73,29.19,31.75,14.42,46.59,1024.00,2027.99,3377.00,3049.04,3446.73,600.12,595.06,42.58,0000 0000 0000 0000 000000
2016-08-30 11:00:08,0.04,0.31,0.00,25.72,29.18,31.76,14.37,46.67,1023.97,2027.99,3376.14,3048.56,3446.03,599.65,594.56,42.63,0000 0000 0000 0000 000000
2016-08-30 11:05:10,0.02,0.31,0.00,25.72,29.17,31.75,14.43,46.53,1024.03,2027.99,3375.54,3048.02,3445.75,600.27,595.28,42.68,0000 0000 0000 0000 000000
2016-08-30 11:10:11,0.02,0.31,0.00,25.73,29.17,31.75,14.45,46.68,1024.04,2027.99,3374.90,3047.89,3445.04,599.90,594.80,42.73,0000 0000 0000 0000 000000
2016-08-30 11:15:12,0.03,0.32,0.00,25.73,29.17,31.74,14.42,46.63,1024.03,2028.00,3374.13,3047.23,3444.84,600.21,595.11,42.78,0000 0000 0000 0000 000000
2016-08-30 11:20:13,0.00,0.32,0.00,25.73,29.17,31.73,14.41,46.70,1024.01,2028.00,3373.98,3047.00,3444.38,599.93,594.88,42.83,0000 0000 0000 0000 000000
2016-08-30 11:25:14,0.02,0.32,0.00,25.75,29.17,31.74,14.37,46.63,1023.96,2028.00,3373.32,3046.99,3444.04,600.01,594.90,42.88,0000 0000 0000 0000 000000
2016-08-30 11:30:15,0.01,0.32,0.00,25.73,29.17,31.73,14.36,46.67,1023.99,2028.00,3372.99,3046.73,3443.99,599.84,594.81,42.93,0000 0000 0000 0000 000000
2016-08-30 11:35:16,0.04,0.32,0.00,25.72,29.17,31.73,14.47,46.70,1023.96,2028.00,3372.38,3046.08,3443.38,600.09,595.00,42.98,0000 0000 0000 0000 000000
2016-08-30 11:40:18,0.02,0.32,0.00,25.72,29.17,31.72,14.44,46.65,1023.95,2028.00,3371.69,3045.82,3442.95,600.00,594.93,43.03,0000 0000 0000 0000 000000
2016-08-30 11:45:19,0.03,0.32,0.00,25.72,29.17,31.73,14.42,46.73,1023.94,2028.00,3371.02,3045.12,3442.28,600.10,594.83,43.08,0000 0000 0000 0000 000000
2016-08-30 11:50:20,0.01,0.32,0.00,25.73,29.17,31.74,14.36,46.75,1023.94,2028.00,3370.63,3045.00,3442.01,599.76,594.66,43.13,0000 0000 0000 0000 000000
2016-08-30 11:55:22,0.01,0.32,0.00,25.73,29.17,31.73,14.46,46.71,1023.95,2028.00,3370.01,3044.85,3441.86,600.15,595.05,43.18,0000 0000 0000 0000 000000
2016-08-30 12:00:23,0.04,0.33,0.00,25.71,29.15,31.72,14.41,46.83,1023.96,2028.00,3369.44,3044.12,3441.09,600.00,594.92,43.23,0000 0000 0000 0000 000000
2016-08-30 12:05:24,0.00,0.33,0.00,25.71,29.15,31.72,14.44,46.76,1023.94,2028.00,3368.96,3044.00,3440.98,600.03,594.92,43.28,0000 0000 0000 0000 000000
2016-08-30 12:10:25,0.03,0.33,0.00,25.71,29.15,31.72,14.37,46.78,1023.94,2028.00,3368.27,3043.86,3440.50,599.60,594.47,43.33,0000 0000 0000 0000 000000
2016-08-30 12:15:26,0.02,0.33,0.00,25.72,29.15,31.71,14.46,46.71,1023.95,2028.00,3367.98,3043.23,3440.02,600.08,594.93,43.38,0000 0000 0000 0000 000000
2016-08-30 12:20:28,0.01,0.33,0.00,25.72,29.14,31.70,14.43,46.77,1023.95,2028.00,3367.57,3043.02,3440.00,600.12,595.00,43.43,0000 0000 0000 0000 000000
2016-08-30 12:25:29,0.00,0.33,0.00,25.72,29.12,31.70,14.35,46.72,1023.94,2028.00,3367.02,3042.99,3439.84,599.48,594.36,43.48,0000 0000 0000 0000 000000
2016-08-30 12:30:30,0.04,0.33,0.00,25.71,29.12,31.69,14.42,46.63,1023.94,2028.00,3366.36,3042.45,3439.05,599.75,594.67,43.53,0000 0000 0000 0000 000000
2016-08-30 12:35:31,0.05,0.34,0.00,25.73,29.12,31.70,14.42,46.65,1023.94,2028.00,3365.17,3041.65,3438.22,599.83,594.63,43.59,0000 0000 0000 0000 000000
2016-08-30 12:40:32,0.03,0.34,0.00,25.72,29.12,31.68,14.45,46.73,1023.94,2028.01,3364.05,3040.99,3437.39,600.10,594.94,43.64,0000 0000 0000 0000 000000
2016-08-30 12:45:33,0.04,0.34,0.00,25.72,29.11,31.68,14.43,46.63,1023.94,2028.01,3363.09,3040.17,3436.80,600.12,594.99,43.69,0000 0000 0000 0000 000000
2016-08-30 12:50:35,0.02,0.34,0.00,25.71,29.10,31.68,14.40,46.48,1023.94,2028.01,3362.28,3039.96,3436.04,599.91,594.76,43.74,0000 0000 0000 0000 000000
2016-08-30 12:55:36,0.05,0.34,0.00,25.70,29.10,31.69,14.38,46.60,1023.94,2028.04,3361.17,3039.18,3435.67,600.06,594.85,43.79,0000 0000 0000 0000 000000